Location: Unspecified
(0.0000°N, 0.0000°E)
Time: 13:37:45
(UTC+00:00)

Envisat - Pass Details

Date: 21 September 2019
Orbit: 764 x 766 km, 98.1° (Epoch: 18 September)

Event Time Altitude Azimuth Distance (km) Brightness Sun altitude
Rises 18:32:52 0° 167° (SSE) 3,230 6.1 -9.9°
Reaches altitude 10° 18:35:10 10° 167° (SSE) 2,301 5.3 -10.5°
Maximum altitude 18:40:15 85° 78° (ENE) 770 3.0 -11.8°
Drops below altitude 10° 18:45:19 10° 350° (N) 2,290 5.6 -13.1°
Sets 18:47:36 0° 349° (N) 3,213 6.4 -13.6°
